This demonstration page uses our WeatherBlox Daily Observations layout. Learn more.

36.17497, -115.13722

Hourly Observations for February 5, 2015

Temp ( °F °C ) Dew Point ( °F °C ) Humidity (%) Winds ( mph kmh ) Pressure ( in mb ) Visibility ( mi km ) Precip ( " mm )
12:53 am 00:53 Clear 51 10.6 38 3.3 61 61 NW 5 7 30.18 1022 10 16.0934 0 0
1:53 am 01:53 Clear 51 10.6 38 3.3 61 61 NW 3 6 30.17 1022 10 16.0934 0 0
2:53 am 02:53 Clear 50 10 38 3.3 63 63 Calm 30.16 1022 10 16.0934 0 0
3:53 am 03:53 Clear 49 9.4 37 2.8 64 64 NNW 5 7 30.17 1022 10 16.0934 0 0
4:53 am 04:53 Clear 49 9.4 36 2.2 61 61 NNW 5 7 30.18 1022 10 16.0934 0 0
5:53 am 05:53 Clear 48 8.9 37 2.8 66 66 WNW 7 11 30.19 1022 10 16.0934 0 0
6:53 am 06:53 Sunny 46 7.8 37 2.8 71 71 NNW 5 7 30.21 1023 10 16.0934 0 0
7:53 am 07:53 Sunny 51 10.6 38 3.3 61 61 Calm 30.22 1024 10 16.0934 0 0
8:53 am 08:53 Sunny 56 13.3 39 3.9 53 53 S 3 6 30.23 1024 10 16.0934 0 0
9:53 am 09:53 Sunny 60 15.6 37 2.8 42 42 S 6 9 30.23 1024 10 16.0934 0 0
10:53 am 10:53 Sunny 62 16.7 36 2.2 38 38 ESE 7 11 30.21 1023 10 16.0934 0 0
11:53 am 11:53 Sunny 65 18.3 35 1.7 33 33 SE 5 7 30.18 1022 10 16.0934 0 0
12:53 pm 12:53 Sunny 67 19.4 35 1.7 31 31 VRB 5 7 30.14 1021 10 16.0934 0 0
1:53 pm 13:53 Sunny 68 20 34 1.1 28 28 Calm 30.12 1020 10 16.0934 0 0
2:53 pm 14:53 Sunny 69 20.6 35 1.7 29 29 SE 6 9 30.1 1019 10 16.0934 0 0
3:53 pm 15:53 Sunny 70 21.1 35 1.7 28 28 E 3 6 30.09 1019 10 16.0934 0 0
4:53 pm 16:53 Sunny 68 20 36 2.2 31 31 E 5 7 30.09 1019 10 16.0934 0 0
5:53 pm 17:53 Clear 66 18.9 35 1.7 32 32 Calm 30.11 1020 10 16.0934 0 0
6:53 pm 18:53 Clear 62 16.7 36 2.2 38 38 ESE 6 9 30.13 1020 10 16.0934 0 0
7:53 pm 19:53 Clear 58 14.4 38 3.3 48 48 Calm 30.14 1021 10 16.0934 0 0
8:53 pm 20:53 Clear 55 12.8 39 3.9 55 55 NW 7 11 30.14 1021 10 16.0934 0 0
9:53 pm 21:53 Clear 55 12.8 39 3.9 55 55 WNW 6 9 30.14 1021 10 16.0934 0 0
10:53 pm 22:53 Clear 54 12.2 38 3.3 55 55 NW 7 11 30.15 1021 10 16.0934 0 0
11:53 pm 23:53 Clear 53 11.7 38 3.3 57 57 WNW 5 7 30.14 1021 10 16.0934 0 0

Powered by AerisWeather